EW7130 Weather Reports


time (UTC)temp
F
wind
direction
speed
knots
gust
knots
rain 1hr
in
rain 24hr
in
rain mn
in
humidity
%
barometer
mb
20260504184139 75 301 4.3 7.0 0.00 0.12 0.12 52 1021.9
20260504183636 75 298 7.0 8.7 0.00 0.12 0.12 52 1021.7
20260504183134 74 19 2.6 8.7 0.00 0.12 0.12 53 1021.7
20260504182631 75 346 3.5 5.2 0.00 0.12 0.12 52 1021.9
20260504182128 74 317 6.1 8.7 0.00 0.12 0.12 53 1021.8
20260504181626 73 353 4.3 8.7 0.00 0.12 0.12 55 1022.4
20260504181123 74 318 4.3 5.2 0.00 0.12 0.12 56 1021.8
20260504180622 75 301 4.3 9.6 0.00 0.12 0.12 56 1022.1
20260504180121 74 76 0.0 2.6 0.00 0.12 0.12 64 1022.2
20260504175617 71 346 0.9 4.3 0.00 0.12 0.12 63 1022.5
20260504175114 71 354 2.6 7.0 0.00 0.12 0.12 59 1022.3
20260504174612 71 351 4.3 7.0 0.00 0.12 0.12 60 1022.5
20260504174108 73 348 6.1 9.6 0.00 0.12 0.12 59 1022.3
20260504173605 72 34 0.0 4.3 0.00 0.12 0.12 62 1022.5
20260504173103 71 356 4.3 9.6 0.00 0.12 0.12 60 1022.5
20260504172559 72 302 7.8 11.3 0.00 0.12 0.12 60 1022.7
20260504172056 73 4 3.5 5.2 0.00 0.12 0.12 57 1022.6
20260504171552 74 271 0.9 1.7 0.00 0.12 0.12 61 1022.6
20260504171049 72 1 0.9 1.7 0.00 0.12 0.12 60 1022.9
20260504170545 71 52 0.9 4.3 0.00 0.12 0.12 61 1023.0
20260504150929 62 113 1.7 2.6 0.00 0.12 0.12 89 1024.8
20260504150426 60 47 0.9 1.7 0.00 0.12 0.12 90 1025.0
20260504140846 55 99 0.9 1.7 0.00 0.12 0.12 99 1025.4
20260504140342 54 72 0.0 2.6 0.00 0.12 0.12 99 1025.7
20260504130811 46 66 0.0 0.9 0.00 0.12 0.12 99 1026.7
20260504130307 46 68 0.0 0.0 0.00 0.12 0.12 99 1026.2
20260504120231 45 78 0.0 0.0 0.00 0.00 0.00 97 1026.8
20260504110658 43 77 0.0 0.0 0.00 0.00 0.00 99 1025.1
20260504110154 43 77 0.0 0.0 0.00 0.00 0.00 99 1025.3
20260504100119 44 74 0.0 0.0 0.00 0.00 0.00 97 1024.9
20260504081512 43 70 0.0 0.0 0.00 0.00 0.00 95 1025.8
20260504081007 42 70 0.0 0.0 0.00 0.00 0.00 95 1025.8
20260504080504 43 70 0.0 0.0 0.00 0.00 0.00 95 1025.7
20260504050317 44 67 0.0 0.0 0.00 0.00 0.00 89 1027.0
20260504045814 44 67 0.0 0.0 0.00 0.00 0.00 89 1026.9
20260504045314 44 67 0.0 0.0 0.00 0.00 0.00 89 1027.2
20260504044812 44 67 0.0 0.0 0.00 0.00 0.00 89 1026.9
20260504044309 44 67 0.0 0.0 0.00 0.00 0.00 88 1026.9
20260504043806 44 67 0.0 0.0 0.00 0.00 0.00 88 1026.9
20260504043303 44 67 0.0 0.0 0.00 0.00 0.00 89 1026.8
20260504042801 44 67 0.0 0.0 0.00 0.00 0.00 89 1026.9
20260504042257 44 67 0.0 0.0 0.00 0.00 0.00 89 1026.9
20260504041753 44 67 0.0 0.0 0.00 0.00 0.00 87 1026.7
20260504041249 44 67 0.0 0.0 0.00 0.00 0.00 87 1026.3
20260504040745 45 67 0.0 0.0 0.00 0.00 0.00 87 1026.7
20260504040243 45 67 0.0 0.0 0.00 0.00 0.00 87 1026.4
20260504035739 45 67 0.0 0.0 0.00 0.00 0.00 87 1026.3
20260504035236 44 67 0.0 0.0 0.00 0.00 0.00 87 1026.6
20260504034734 44 67 0.0 0.0 0.00 0.00 0.00 88 1026.3
20260504034231 44 67 0.0 0.0 0.00 0.00 0.00 87 1026.4
20260504033729 44 67 0.0 0.0 0.00 0.00 0.00 88 1026.1
20260504033226 44 67 0.0 0.0 0.00 0.00 0.00 87 1026.1
20260504032723 44 67 0.0 0.0 0.00 0.00 0.00 87 1026.2
20260504032220 44 67 0.0 0.0 0.00 0.00 0.00 87 1026.4
20260504031716 44 67 0.0 0.0 0.00 0.00 0.00 87 1026.3
20260504031214 44 67 0.0 0.0 0.00 0.00 0.00 87 1025.9
20260504030709 44 67 0.0 0.0 0.00 0.00 0.00 87 1026.3
20260504030207 44 67 0.0 0.0 0.00 0.00 0.00 87 1026.1
20260504025703 44 66 0.0 0.0 0.00 0.00 0.00 88 1026.2
20260504025200 44 66 0.0 0.0 0.00 0.00 0.00 88 1026.4
20260504024657 44 66 0.0 0.0 0.00 0.00 0.00 88 1026.3
20260504024153 44 66 0.0 0.0 0.00 0.00 0.00 87 1026.2
20260504023650 44 66 0.0 0.0 0.00 0.00 0.00 87 1026.1
20260504023146 44 66 0.0 0.0 0.00 0.00 0.00 86 1026.0
20260504022643 44 66 0.0 0.0 0.00 0.00 0.00 86 1025.8
20260504022138 45 66 0.0 0.0 0.00 0.00 0.00 85 1026.0
20260504021637 45 66 0.0 0.0 0.00 0.00 0.00 84 1025.7
20260504021133 45 66 0.0 0.0 0.00 0.00 0.00 83 1025.8
20260504020630 46 66 0.0 0.0 0.00 0.00 0.00 83 1025.8
20260504020126 46 66 0.0 0.0 0.00 0.00 0.00 82 1025.9
20260504015623 46 66 0.0 0.0 0.00 0.00 0.00 81 1025.9
20260504015119 46 66 0.0 0.0 0.00 0.00 0.00 80 1025.9
20260504014615 47 66 0.0 0.0 0.00 0.00 0.00 80 1025.9
20260504014113 47 66 0.0 0.0 0.00 0.00 0.00 79 1025.5
20260504013610 47 66 0.0 0.0 0.00 0.00 0.00 78 1025.8
20260504013107 48 66 0.0 0.0 0.00 0.00 0.00 78 1025.6
20260504012604 48 66 0.0 0.0 0.00 0.00 0.00 77 1025.5
20260504012102 48 66 0.0 0.0 0.00 0.00 0.00 77 1025.5
20260504011559 48 66 0.0 0.0 0.00 0.00 0.00 77 1025.7
20260504011055 49 66 0.0 0.0 0.00 0.00 0.00 76 1025.4
20260504010550 49 67 0.0 0.0 0.00 0.00 0.00 76 1025.6
20260504010047 49 65 0.0 0.0 0.00 0.00 0.00 74 1025.3
20260504005544 50 65 0.0 0.0 0.00 0.00 0.00 73 1025.4
20260504005041 50 65 0.0 0.9 0.00 0.00 0.00 72 1025.5
20260504004539 50 65 0.0 0.0 0.00 0.00 0.00 71 1025.4
20260504004036 51 65 0.0 0.0 0.00 0.00 0.00 70 1025.3
20260504003532 51 65 0.0 0.9 0.00 0.00 0.00 70 1025.1
20260504003029 52 61 0.0 0.0 0.00 0.00 0.00 68 1025.1
20260504002526 52 62 0.0 0.9 0.00 0.00 0.00 67 1025.1
20260504002023 53 54 0.0 0.0 0.00 0.00 0.00 66 1025.0
20260504001521 53 55 0.0 0.0 0.00 0.00 0.00 65 1025.0
20260504001017 53 104 0.9 1.7 0.00 0.00 0.00 65 1024.9
20260504000514 54 40 0.0 0.9 0.00 0.00 0.00 63 1025.0
20260504000011 54 26 0.0 0.0 0.00 0.00 0.00 61 1024.9
20260503235509 55 23 0.9 0.9 0.00 0.00 0.00 60 1025.0
20260503235006 55 42 0.0 0.0 0.00 0.00 0.00 60 1025.0
20260503234503 55 41 0.0 0.0 0.00 0.00 0.00 58 1025.1
20260503234002 56 42 0.0 0.0 0.00 0.00 0.00 56 1025.0
20260503233457 56 41 0.0 0.0 0.00 0.00 0.00 56 1024.8
20260503232954 57 41 0.0 0.0 0.00 0.00 0.00 55 1024.6
20260503232451 57 41 0.0 0.0 0.00 0.00 0.00 57 1024.7
20260503231949 57 41 0.0 0.0 0.00 0.00 0.00 54 1024.8
20260503231446 58 41 0.0 0.9 0.00 0.00 0.00 52 1025.1
20260503230942 58 26 0.0 0.0 0.00 0.00 0.00 53 1024.9
20260503230439 58 26 0.0 0.0 0.00 0.00 0.00 52 1025.1
20260503225937 59 26 0.0 0.0 0.00 0.00 0.00 52 1024.9
20260503225433 59 25 0.0 0.9 0.00 0.00 0.00 49 1025.0
20260503224929 60 24 0.0 0.9 0.00 0.00 0.00 47 1025.0
20260503224426 60 109 0.9 1.7 0.00 0.00 0.00 46 1025.0
20260503223924 61 358 1.7 1.7 0.00 0.00 0.00 44 1025.2
20260503223422 62 29 0.9 1.7 0.00 0.00 0.00 44 1025.2
20260503222917 62 280 2.6 4.3 0.00 0.00 0.00 35 1025.2
20260503222416 62 14 0.0 0.9 0.00 0.00 0.00 41 1025.3
20260503221914 66 136 3.5 4.3 0.00 0.00 0.00 37 1025.4
20260503221412 67 72 0.0 4.3 0.00 0.00 0.00 30 1025.5
20260503220908 67 56 0.9 1.7 0.00 0.00 0.00 32 1025.6
20260503220404 67 38 0.9 2.6 0.00 0.00 0.00 32 1025.4
20260503215902 68 316 1.7 2.6 0.00 0.00 0.00 33 1025.5
20260503215358 68 130 2.6 2.6 0.00 0.00 0.00 37 1025.7
20260503214856 68 89 0.9 2.6 0.00 0.00 0.00 31 1025.6
20260503214353 67 29 0.0 4.3 0.00 0.00 0.00 32 1025.7
20260503213850 68 327 0.9 1.7 0.00 0.00 0.00 31 1025.8
20260503213348 68 351 1.7 2.6 0.00 0.00 0.00 30 1025.7
20260503212845 67 112 0.0 4.3 0.00 0.00 0.00 31 1025.6
20260503212343 69 55 0.9 2.6 0.00 0.00 0.00 30 1025.7
20260503211839 67 49 0.0 2.6 0.00 0.00 0.00 32 1025.8
20260503211336 66 70 0.9 1.7 0.00 0.00 0.00 30 1025.8
20260503210831 68 288 4.3 4.3 0.00 0.00 0.00 30 1025.8
20260503210329 68 94 3.5 4.3 0.00 0.00 0.00 30 1026.0
20260503205824 67 28 0.9 2.6 0.00 0.00 0.00 31 1025.9
20260503205321 67 9 0.9 1.7 0.00 0.00 0.00 28 1026.0
20260503204817 67 31 0.9 4.3 0.00 0.00 0.00 32 1026.1
20260503204315 67 295 2.6 4.3 0.00 0.00 0.00 33 1025.9
20260503203812 66 285 4.3 6.1 0.00 0.00 0.00 33 1026.1
20260503203309 69 54 0.0 1.7 0.00 0.00 0.00 33 1026.2
20260503202806 68 33 1.7 5.2 0.00 0.00 0.00 31 1026.3
20260503202304 66 332 0.9 2.6 0.00 0.00 0.00 33 1026.7
20260503201802 66 55 0.0 1.7 0.00 0.00 0.00 30 1026.8
20260503201259 67 66 0.9 4.3 0.00 0.00 0.00 30 1026.8
20260503200756 64 218 2.6 6.1 0.00 0.00 0.00 32 1026.9
20260503200252 63 348 1.7 7.8 0.00 0.00 0.00 34 1027.0
20260503195749 66 331 6.1 7.8 0.00 0.00 0.00 31 1027.1
20260503195245 65 154 1.7 2.6 0.00 0.00 0.00 33 1026.8
20260503194744 65 22 0.9 2.6 0.00 0.00 0.00 32 1027.1
20260503194239 64 71 0.9 1.7 0.00 0.00 0.00 32 1027.4
20260503193735 66 16 2.6 2.6 0.00 0.00 0.00 32 1027.5
20260503193232 64 284 1.7 4.3 0.00 0.00 0.00 34 1027.5
20260503192727 64 141 4.3 6.1 0.00 0.00 0.00 34 1027.9
20260503192222 63 51 0.0 1.7 0.00 0.00 0.00 34 1028.0
20260503191720 65 281 5.2 7.0 0.00 0.00 0.00 35 1028.0
20260503191217 64 52 1.7 4.3 0.00 0.00 0.00 35 1028.1
20260503190714 65 306 4.3 5.2 0.00 0.00 0.00 33 1028.1
20260503190210 62 22 1.7 2.6 0.00 0.00 0.00 35 1028.4
20260503185708 63 323 5.2 6.1 0.00 0.00 0.00 35 1028.5
20260503185203 63 69 1.7 6.1 0.00 0.00 0.00 34 1028.3
20260503184658 64 82 0.9 1.7 0.00 0.00 0.00 38 1028.6